Weather History for Deelen, Netherlands

Change the Weather History Date:

Thursday, November 1, 2012

  Actual Average Record
Temperature  
Mean Temperature 46 °F -  
Max Temperature 50 °F 46 °F 62 °F (2011)
Min Temperature 41 °F 37 °F 30 °F (2002)
Degree Days  
Heating Degree Days 20    
Moisture  
Dew Point 40 °F    
Average Humidity 84    
Maximum Humidity 93    
Minimum Humidity 71    
Precipitation  
Precipitation 0.00 in - - ()
Sea Level Pressure  
Sea Level Pressure 29.06 in    
Wind  
Wind Speed 11 mph ()    
Max Wind Speed 20 mph    
Max Gust Speed 32 mph    
Visibility 6.2 miles    
Events Rain    
Averages and records for this station are not official NWS values.
T = Trace of Precipitation, MM = Missing Value Source: Averaged Metar Reports

Daily Weather History Graph

Daily Weather History Graph

Search for Another Location

Airport:

Trip Planner

Search our weather history database for the weather conditions in past years. The results will help you decide how hot, cold, wet, or windy it might be!

Date:

Astronomy

Nov. 01, 2012 Rise Set
Actual Time 7:32 AM CET 5:07 PM CET
Civil Twilight 6:56 AM CET 5:43 PM CET
Nautical Twilight 6:16 AM CET 6:22 PM CET
Astronomical Twilight 5:37 AM CET 7:02 PM CET
Moon 6:35 PM CET (11/1) 10:07 AM CET (11/1)
Length of Visible Light 10h 46m
Length of Day
9h 35m
Waning Gibbous, 94% of the Moon is Illuminated
Nov 1
Waning Gibbous
Nov 7
Last Quarter
Nov 13
New
Nov 20
First Quarter
Nov 28
Full

Hourly Weather History & Observations

Time (CET) Temp. Windchill Dew Point Humidity Pressure Visibility Wind Dir Wind Speed Gust Speed Precip Events Conditions
12:25 AM 42.8 °F 37.0 °F 37.4 °F 81% 29.24 in 6.2 mi SSE 10.4 mph - N/A   Unknown
12:55 AM 42.8 °F 37.0 °F 37.4 °F 81% 29.24 in 6.2 mi SSE 10.4 mph - N/A   Unknown
1:25 AM 42.8 °F 37.5 °F 37.4 °F 81% 29.24 in 6.2 mi SE 9.2 mph - N/A   Unknown
1:55 AM 42.8 °F 37.0 °F 37.4 °F 81% 29.21 in 6.2 mi SE 10.4 mph - N/A   Unknown
2:25 AM 42.8 °F 37.5 °F 37.4 °F 81% 29.21 in 6.2 mi SE 9.2 mph - N/A   Partly Cloudy
2:55 AM 41.0 °F 35.2 °F 37.4 °F 87% 29.18 in 6.2 mi SSE 9.2 mph - N/A   Unknown
3:25 AM 41.0 °F 35.8 °F 35.6 °F 81% 29.18 in 6.2 mi SE 8.1 mph - N/A   Partly Cloudy
3:55 AM 41.0 °F 35.8 °F 35.6 °F 81% 29.15 in 6.2 mi SE 8.1 mph - N/A   Unknown
4:25 AM 41.0 °F 35.8 °F 35.6 °F 81% 29.15 in 6.2 mi SE 8.1 mph - N/A   Unknown
4:55 AM 41.0 °F 35.2 °F 37.4 °F 87% 29.12 in 6.2 mi SE 9.2 mph - N/A   Unknown
5:25 AM 41.0 °F 35.2 °F 37.4 °F 87% 29.12 in 6.2 mi SE 9.2 mph - N/A   Unknown
5:55 AM 41.0 °F 34.7 °F 37.4 °F 87% 29.09 in 6.2 mi SE 10.4 mph - N/A   Unknown
6:25 AM 41.0 °F 34.7 °F 37.4 °F 87% 29.09 in 6.2 mi SE 10.4 mph - N/A   Unknown
6:55 AM 41.0 °F 34.3 °F 37.4 °F 87% 29.06 in 6.2 mi SE 11.5 mph - N/A   Unknown
7:25 AM 41.0 °F 34.3 °F 37.4 °F 87% 29.06 in 6.2 mi SE 11.5 mph - N/A   Overcast
7:55 AM 42.8 °F 36.6 °F 37.4 °F 81% 29.06 in 6.2 mi SE 11.5 mph - N/A   Partly Cloudy
8:25 AM 42.8 °F 36.6 °F 39.2 °F 87% 29.03 in 6.2 mi SE 11.5 mph - N/A   Unknown
8:55 AM 46.4 °F 40.1 °F 39.2 °F 76% 29.03 in 6.2 mi SSE 15.0 mph - N/A   Scattered Clouds
9:25 AM 46.4 °F 39.8 °F 39.2 °F 76% 29.03 in 6.2 mi SSE 16.1 mph - N/A   Overcast
9:55 AM 48.2 °F - 41.0 °F 76% 29.00 in 6.2 mi SSE 17.3 mph - N/A   Mostly Cloudy
10:25 AM 48.2 °F - 41.0 °F 76% 29.00 in 6.2 mi SSE 18.4 mph - N/A   Mostly Cloudy
10:55 AM 50.0 °F - 41.0 °F 71% 29.00 in 6.2 mi SSE 19.6 mph 32.2 mph N/A   Overcast
11:25 AM 48.2 °F - 42.8 °F 82% 28.97 in 6.2 mi SSE 17.3 mph - N/A Rain Drizzle
11:55 AM 48.2 °F - 42.8 °F 82% 28.97 in 6.2 mi SSE 15.0 mph - N/A Rain Drizzle
12:25 PM 50.0 °F - 42.8 °F 76% 28.97 in 6.2 mi South 17.3 mph - N/A   Mostly Cloudy
12:55 PM 50.0 °F - 44.6 °F 82% 28.94 in 6.2 mi South 18.4 mph - N/A   Overcast
1:25 PM 50.0 °F - 44.6 °F 82% 28.94 in 6.2 mi South 15.0 mph - N/A   Mostly Cloudy
1:55 PM 50.0 °F - 44.6 °F 82% 28.94 in 6.2 mi South 16.1 mph - N/A   Drizzle
2:25 PM 50.0 °F - 46.4 °F 87% 28.94 in 6.2 mi South 15.0 mph - N/A   Light Drizzle
2:55 PM 50.0 °F - 46.4 °F 87% 28.94 in 6.2 mi South 11.5 mph - N/A   Mostly Cloudy
3:25 PM 50.0 °F - 44.6 °F 82% 28.97 in 6.2 mi South 15.0 mph - N/A   Mostly Cloudy
3:55 PM 50.0 °F - 46.4 °F 87% 28.97 in 6.2 mi South 11.5 mph - N/A   Mostly Cloudy
4:25 PM 44.6 °F 40.7 °F 42.8 °F 93% 28.97 in 6.2 mi SW 6.9 mph - N/A   Overcast
4:55 PM 44.6 °F 38.8 °F 42.8 °F 93% 28.97 in 6.2 mi WSW 11.5 mph - N/A   Mostly Cloudy
5:25 PM 44.6 °F 39.7 °F 42.8 °F 93% 29.00 in 6.2 mi SSW 9.2 mph - N/A Rain Light Rain Showers
5:55 PM 44.6 °F 39.7 °F 42.8 °F 93% 29.00 in 6.2 mi South 9.2 mph - N/A   Mostly Cloudy
6:25 PM 42.8 °F 37.5 °F 41.0 °F 93% 29.03 in 6.2 mi SSW 9.2 mph - N/A   Mostly Cloudy
6:55 PM 44.6 °F 39.2 °F 41.0 °F 87% 29.03 in 6.2 mi SSW 10.4 mph - N/A   Overcast
7:25 PM 42.8 °F 36.6 °F 41.0 °F 93% 29.06 in 6.2 mi South 11.5 mph - N/A   Scattered Clouds
7:55 PM 42.8 °F 36.6 °F 41.0 °F 93% 29.06 in 6.2 mi South 11.5 mph - N/A   Scattered Clouds
8:25 PM 42.8 °F 37.0 °F 39.2 °F 87% 29.06 in 6.2 mi SSW 10.4 mph - N/A   Partly Cloudy
8:55 PM 42.8 °F 36.2 °F 39.2 °F 87% 29.06 in 6.2 mi SSW 12.7 mph - N/A   Unknown
9:25 PM 42.8 °F 35.8 °F 39.2 °F 87% 29.09 in 6.2 mi SSW 13.8 mph - N/A   Scattered Clouds
9:55 PM 42.8 °F 36.2 °F 39.2 °F 87% 29.09 in 6.2 mi SSW 12.7 mph - N/A   Overcast
10:25 PM 42.8 °F 36.2 °F 39.2 °F 87% 29.12 in 6.2 mi SSW 12.7 mph - N/A   Mostly Cloudy
10:55 PM 42.8 °F 35.8 °F 39.2 °F 87% 29.12 in 6.2 mi SSW 13.8 mph - N/A   Mostly Cloudy
11:05 PM 44.6 °F 38.8 °F 39.2 °F 81% 29.12 in 6.2 mi SSW 11.5 mph - N/A   Mostly Cloudy
11:25 PM 44.6 °F 38.1 °F 39.2 °F 81% 29.12 in 6.2 mi SSW 13.8 mph - N/A   Mostly Cloudy
11:55 PM 44.6 °F 38.4 °F 39.2 °F 81% 29.15 in 6.2 mi SSW 12.7 mph - N/A   Overcast